PROFILE

 METAR AND TAF INFORMATION
ADDS - METARS form results

(1430 UTC 18 October 2018)
http://aviationweather.gov/metar/data/
 
BGBW 181350Z 22005KT 9999 FEW045 BKN070 BKN088 02/M04 Q0990
TAF BGBW 181404Z 1815/1822 24005KT 9999 SCT060 TEMPO 1815/1818 BKN060 TEMPO 1818/1822 2500 -SHSN BKN006 SCT020TCU 

 AIRPORT MAP

 RUNWAY INFORMATION
Runway 07 Runway length 6004 ft Runway width 148 ft
Runway elevation 11 ft Runway displaced threshold 0 ft Runway heading 41
Runway 25 Runway length 6004 ft Runway width 148 ft
Runway elevation 112 ft Runway displaced threshold 0 ft Runway heading 221

 AIRPORT FREQUENCIES
Type AFIS Name AFIS Frequency 119.1 MHZ

 AIRPORT NEAR NAVIGATION AIDS
Type NDB Name Narsarsuaq Frequency 359 KHZ
Type DME Name Narsarsuaq Frequency 111850 KHZ